User: anonymous   Login
Location: Unspecified
(0.0000°N, 0.0000°E)
Time: 10:56:31
(UTC+01:00)
Language:

Cosmos 1892 Rocket - Orbit

View from above orbital plane
View from above orbital plane
View from above satellite
View from above satellite

Ground track
Ground track

The orbit data is extracted from the following two-line orbital elements,

1 18422U 87088B   17059.12108203  .00000094  00000-0  86104-5 0  9994
2 18422  82.5098 279.0717 0021133  79.3147  36.3117 14.82911676585650
Epoch (UTC): 28 February 2017 02:54:21
Eccentricity: 0.0021133
inclination: 82.5098°
perigee height: 605 km
apogee height: 635 km
right ascension of ascending node: 279.0717°
argument of perigee: 79.3147°
revolutions per day: 14.82911676
mean anomaly at epoch: 36.3117°
orbit number at epoch: 58565

The dashed part of the orbit path shows where the satellite is in the earth's shadow,  

DLR